This is the latest recevied weather packets stored in our database for station/object W5DNT. If no packets are shown the sender has not sent any weather packets the latest 10 day(s).
| Time | Temp. | Humidity | Pressure | Rain* | Wind** | Luminosity | Snow |
|---|---|---|---|---|---|---|---|
| 1777743942 | 20° C | 82% | 1023.3 hPa | 0 mm | - | - | - |
| 1777743039 | 19.44° C | 83% | 1023.7 hPa | 0 mm | - | - | - |
| 1777742134 | 18.33° C | 84% | 1023.8 hPa | 0 mm | - | - | - |
| 1777741236 | 18.33° C | 84% | 1023.8 hPa | 0 mm | - | - | - |
| 1777740338 | 18.33° C | 83% | 1023.8 hPa | 0 mm | - | - | - |
| 1777739427 | 17.78° C | 85% | 1023.9 hPa | 0 mm | - | - | - |
| 1777738522 | 17.22° C | 85% | 1023.9 hPa | 0 mm | - | - | - |
| 1777737623 | 16.67° C | 85% | 1023.9 hPa | 0 mm | - | - | - |
| 1777736720 | 16.67° C | 85% | 1023.7 hPa | 0 mm | - | - | - |
| 1777735817 | 16.11° C | 85% | 1023.7 hPa | 0 mm | - | - | - |
| 1777734913 | 16.11° C | 86% | 1023.7 hPa | 0 mm | - | - | - |
| 1777734011 | 15.56° C | 86% | 1023.7 hPa | 0 mm | - | - | - |
| 1777733110 | 15° C | 86% | 1023.5 hPa | 0 mm | - | - | - |
| 1777732203 | 14.44° C | 87% | 1023.4 hPa | 0 mm | - | - | - |
| 1777731370 | 13.89° C | 88% | 1023.3 hPa | 0 mm | - | - | - |
| 1777730455 | 12.78° C | 88% | 1023.3 hPa | 0 mm | - | - | - |
| 1777729552 | 12.22° C | 89% | 1023.3 hPa | 0 mm | - | - | - |
| 1777728665 | 11.11° C | 89% | 1023.2 hPa | 0 mm | - | - | - |
| 1777727745 | 10.56° C | 89% | 1023.1 hPa | 0 mm | - | - | - |
| 1777726858 | 9.44° C | 89% | 1022.9 hPa | 0 mm | - | - | - |
| 1777725956 | 8.89° C | 88% | 1022.8 hPa | 0 mm | - | - | - |
| 1777725040 | 7.78° C | 88% | 1022.4 hPa | 0 mm | - | - | - |
| 1777724139 | 7.78° C | 88% | 1022.1 hPa | 0 mm | - | - | - |
| 1777723238 | 7.78° C | 88% | 1021.8 hPa | 0 mm | - | - | - |
| 1777722338 | 7.78° C | 88% | 1021.6 hPa | 0 mm | - | - | - |
* Rain latest hour (hover to see other rain measurements)
** Current wind speed in m/s (hover to see current wind gust speed)